Location: *
(49.4547°N, 7.9131°E)
Time: 02:25:11
(UTC+00:00)

Cosmos 2056 Rocket - Pass Details

Date: 22 September 2019
Orbit: 743 x 800 km, 74.0° (Epoch: 22 October)

Event Time Altitude Azimuth Distance (km) Brightness Sun altitude
Rises 19:06:34 0° 205° (SSW) 3,296 6.8 -16.6°
Reaches altitude 10° 19:08:58 10° 206° (SSW) 2,370 6.1 -17.0°
Maximum altitude 19:14:23 81° 294° (WNW) 814 3.7 -17.8°
Drops below altitude 10° 19:19:48 10° 22° (NNE) 2,368 6.1 -18.6°
Sets 19:22:12 0° 24° (NNE) 3,294 6.8 -19.0°
